Time,TemperatureF,DewpointF,PressureIn,WindDirection,WindDirectionDegrees,WindSpeedMPH,WindSpeedGustMPH,Humidity,HourlyPrecipIn,Conditions,Clouds,dailyrainin,SoftwareType,DateUTC
2013-03-19 00:00:00,41.1,40.3,29.76,NW,320,0.0,4.0,97,0.20,,---,0.50,VWS V14.01,2013-03-19 04:00:00,
2013-03-19 00:06:00,41.2,40.4,29.78,WSW,251,0.0,4.0,97,0.08,,---,0.00,VWS V14.01,2013-03-19 04:06:00,
2013-03-19 00:10:00,41.3,40.5,29.79,WSW,252,2.0,4.0,97,0.08,,---,0.00,VWS V14.01,2013-03-19 04:10:00,
2013-03-19 00:15:00,41.4,40.6,29.79,West,280,0.0,4.0,97,0.08,,---,0.00,VWS V14.01,2013-03-19 04:15:00,
2013-03-19 00:21:00,41.5,40.7,29.79,West,280,0.0,4.0,97,0.08,,---,0.00,VWS V14.01,2013-03-19 04:21:00,
2013-03-19 00:25:00,41.5,40.7,29.78,West,280,1.0,4.0,97,0.08,,---,0.00,VWS V14.01,2013-03-19 04:25:00,
2013-03-19 00:30:00,40.7,39.7,29.81,SE,128,0.0,2.0,96,0.24,,---,0.50,VWS V14.01,2013-03-19 04:30:00,
2013-03-19 00:31:00,41.6,40.8,29.78,WNW,297,0.0,4.0,97,0.08,,---,0.00,VWS V14.01,2013-03-19 04:31:00,
2013-03-19 00:36:00,41.8,41.0,29.78,WNW,297,1.0,1.0,97,0.00,,---,0.00,VWS V14.01,2013-03-19 04:36:00,
2013-03-19 00:40:00,41.9,41.1,29.79,WNW,297,0.0,1.0,97,0.00,,---,0.00,VWS V14.01,2013-03-19 04:40:00,
2013-03-19 00:45:00,42.0,41.2,29.79,WNW,297,0.0,1.0,97,0.00,,---,0.00,VWS V14.01,2013-03-19 04:45:00,
2013-03-19 00:50:00,42.0,41.2,29.80,WNW,297,0.0,1.0,97,0.00,,---,0.00,VWS V14.01,2013-03-19 04:50:00,
2013-03-19 00:55:00,42.2,41.4,29.79,SE,142,0.0,2.0,97,0.00,,---,0.00,VWS V14.01,2013-03-19 04:55:00,
2013-03-19 01:00:00,42.2,41.4,29.79,SE,142,0.0,2.0,97,0.00,,---,0.00,VWS V14.01,2013-03-19 05:00:00,
2013-03-19 01:05:00,42.3,41.5,29.80,West,268,2.0,2.0,97,0.00,,---,0.00,VWS V14.01,2013-03-19 05:05:00,
2013-03-19 01:10:00,42.3,41.5,29.80,West,267,0.0,4.0,97,0.00,,---,0.00,VWS V14.01,2013-03-19 05:10:00,
2013-03-19 01:15:00,42.4,41.6,29.79,West,267,0.0,4.0,97,0.00,,---,0.00,VWS V14.01,2013-03-19 05:15:00,
2013-03-19 01:20:00,42.4,41.6,29.78,North,360,0.0,4.0,97,0.00,,---,0.00,VWS V14.01,2013-03-19 05:20:00,
2013-03-19 01:25:00,42.3,41.5,29.79,North,355,0.0,4.0,97,0.00,,---,0.00,VWS V14.01,2013-03-19 05:25:00,
2013-03-19 01:30:00,42.2,41.4,29.80,North,355,0.0,4.0,97,0.00,,---,0.00,VWS V14.01,2013-03-19 05:30:00,
2013-03-19 01:35:00,42.2,41.4,29.80,WNW,296,1.0,2.0,97,0.00,,---,0.00,VWS V14.01,2013-03-19 05:35:00,
2013-03-19 01:40:00,42.1,41.3,29.81,WNW,290,0.0,3.0,97,0.00,,---,0.00,VWS V14.01,2013-03-19 05:40:00,
2013-03-19 01:45:00,42.1,41.3,29.81,WNW,290,1.0,3.0,97,0.00,,---,0.00,VWS V14.01,2013-03-19 05:45:00,
2013-03-19 01:50:00,42.1,41.3,29.80,NNW,341,0.0,3.0,97,0.00,,---,0.00,VWS V14.01,2013-03-19 05:50:00,
2013-03-19 01:55:00,42.0,41.2,29.80,SW,221,0.0,4.0,97,0.00,,---,0.00,VWS V14.01,2013-03-19 05:55:00,
2013-03-19 02:00:00,42.0,41.2,29.79,SW,221,0.0,4.0,97,0.00,,---,0.00,VWS V14.01,2013-03-19 06:00:00,
2013-03-19 02:05:00,42.0,41.2,29.79,SW,221,0.0,2.0,97,0.00,,---,0.00,VWS V14.01,2013-03-19 06:05:00,
2013-03-19 02:10:00,42.0,41.2,29.79,SW,221,0.0,2.0,97,0.00,,---,0.00,VWS V14.01,2013-03-19 06:10:00,
2013-03-19 02:15:00,42.0,41.2,29.78,SW,221,0.0,2.0,97,0.00,,---,0.00,VWS V14.01,2013-03-19 06:15:00,
2013-03-19 02:20:00,42.0,41.2,29.78,SW,221,0.0,2.0,97,0.00,,---,0.00,VWS V14.01,2013-03-19 06:20:00,
2013-03-19 02:25:00,42.0,41.2,29.78,SW,221,0.0,2.0,97,0.00,,---,0.00,VWS V14.01,2013-03-19 06:25:00,
2013-03-19 02:30:00,42.0,41.2,29.78,SW,221,0.0,2.0,97,0.00,,---,0.00,VWS V14.01,2013-03-19 06:30:00,
2013-03-19 02:35:00,42.1,41.3,29.78,SW,221,0.0,0.0,97,0.00,,---,0.00,VWS V14.01,2013-03-19 06:35:00,
2013-03-19 02:40:00,42.1,41.3,29.77,SW,221,0.0,0.0,97,0.00,,---,0.00,VWS V14.01,2013-03-19 06:40:00,
2013-03-19 02:45:00,42.1,41.3,29.77,North,11,0.0,2.0,97,0.00,,---,0.00,VWS V14.01,2013-03-19 06:45:00,
2013-03-19 02:50:00,42.1,41.3,29.77,North,11,0.0,2.0,97,0.00,,---,0.00,VWS V14.01,2013-03-19 06:50:00,
2013-03-19 02:55:00,42.1,41.3,29.76,North,11,0.0,2.0,97,0.00,,---,0.00,VWS V14.01,2013-03-19 06:55:00,
2013-03-19 03:00:00,42.1,41.3,29.76,North,11,0.0,2.0,97,0.00,,---,0.00,VWS V14.01,2013-03-19 07:00:00,
2013-03-19 03:05:00,42.1,41.3,29.76,North,11,0.0,0.0,97,0.00,,---,0.00,VWS V14.01,2013-03-19 07:05:00,
2013-03-19 03:10:00,42.1,41.3,29.76,North,11,0.0,0.0,97,0.00,,---,0.00,VWS V14.01,2013-03-19 07:10:00,
2013-03-19 03:15:00,42.1,41.3,29.76,North,11,0.0,0.0,97,0.00,,---,0.00,VWS V14.01,2013-03-19 07:15:00,
2013-03-19 03:20:00,42.1,41.3,29.77,North,11,0.0,0.0,97,0.00,,---,0.00,VWS V14.01,2013-03-19 07:20:00,
2013-03-19 03:25:00,42.1,41.3,29.77,North,11,0.0,0.0,97,0.00,,---,0.00,VWS V14.01,2013-03-19 07:25:00,
2013-03-19 03:30:00,42.1,41.3,29.76,North,11,0.0,1.0,97,0.00,,---,0.00,VWS V14.01,2013-03-19 07:30:00,
2013-03-19 03:35:00,42.1,41.3,29.76,North,11,0.0,0.0,97,0.00,,---,0.00,VWS V14.01,2013-03-19 07:35:00,
2013-03-19 03:40:00,42.1,41.3,29.76,North,11,0.0,0.0,97,0.00,,---,0.00,VWS V14.01,2013-03-19 07:40:00,
2013-03-19 03:45:00,42.1,41.3,29.76,North,11,0.0,0.0,97,0.00,,---,0.00,VWS V14.01,2013-03-19 07:45:00,
2013-03-19 03:50:00,42.1,41.3,29.76,North,11,0.0,0.0,97,0.00,,---,0.00,VWS V14.01,2013-03-19 07:50:00,
2013-03-19 03:55:00,42.1,41.3,29.75,North,11,0.0,0.0,97,0.00,,---,0.00,VWS V14.01,2013-03-19 07:55:00,
2013-03-19 04:00:00,42.1,41.3,29.75,North,11,0.0,2.0,97,0.00,,---,0.00,VWS V14.01,2013-03-19 08:00:00,
2013-03-19 04:05:00,42.1,41.3,29.75,North,11,0.0,1.0,97,0.01,,---,0.01,VWS V14.01,2013-03-19 08:05:00,
2013-03-19 04:10:00,42.0,41.2,29.75,North,11,0.0,1.0,97,0.01,,---,0.01,VWS V14.01,2013-03-19 08:10:00,
2013-03-19 04:15:00,42.0,41.2,29.74,ESE,117,0.0,2.0,97,0.01,,---,0.01,VWS V14.01,2013-03-19 08:15:00,
2013-03-19 04:20:00,42.0,41.2,29.75,West,263,0.0,2.0,97,0.01,,---,0.01,VWS V14.01,2013-03-19 08:20:00,
2013-03-19 04:25:00,41.9,41.1,29.75,West,263,0.0,3.0,97,0.01,,---,0.01,VWS V14.01,2013-03-19 08:25:00,
2013-03-19 04:30:00,41.9,41.1,29.75,West,263,0.0,3.0,97,0.01,,---,0.01,VWS V14.01,2013-03-19 08:30:00,
2013-03-19 04:35:00,41.9,41.1,29.75,West,263,0.0,1.0,97,0.01,,---,0.01,VWS V14.01,2013-03-19 08:35:00,
2013-03-19 04:40:00,41.8,41.0,29.76,WNW,302,0.0,3.0,97,0.01,,---,0.01,VWS V14.01,2013-03-19 08:40:00,
2013-03-19 04:45:00,41.8,41.0,29.76,WNW,302,1.0,3.0,97,0.01,,---,0.01,VWS V14.01,2013-03-19 08:45:00,
2013-03-19 04:50:00,41.7,40.9,29.76,SW,230,0.0,5.0,97,0.01,,---,0.01,VWS V14.01,2013-03-19 08:50:00,
2013-03-19 04:55:00,41.6,40.8,29.77,SW,230,0.0,5.0,97,0.01,,---,0.01,VWS V14.01,2013-03-19 08:55:00,
2013-03-19 05:00:00,41.6,40.8,29.76,SW,230,0.0,5.0,97,0.01,,---,0.01,VWS V14.01,2013-03-19 09:00:00,
2013-03-19 05:05:00,41.6,40.8,29.77,WSW,250,2.0,6.0,97,0.01,,---,0.01,VWS V14.01,2013-03-19 09:05:00,
2013-03-19 05:10:00,41.6,40.8,29.77,North,355,0.0,6.0,97,0.01,,---,0.01,VWS V14.01,2013-03-19 09:10:00,
2013-03-19 05:15:00,41.5,40.7,29.76,North,355,0.0,6.0,97,0.01,,---,0.01,VWS V14.01,2013-03-19 09:15:00,
2013-03-19 05:20:00,41.4,40.6,29.76,WNW,285,0.0,6.0,97,0.01,,---,0.01,VWS V14.01,2013-03-19 09:20:00,
2013-03-19 05:25:00,41.4,40.6,29.77,WNW,285,0.0,6.0,97,0.01,,---,0.01,VWS V14.01,2013-03-19 09:25:00,
2013-03-19 05:30:00,41.4,40.6,29.77,WNW,285,0.0,6.0,97,0.01,,---,0.01,VWS V14.01,2013-03-19 09:30:00,
2013-03-19 05:35:00,41.4,40.6,29.77,WNW,285,0.0,0.0,97,0.00,,---,0.01,VWS V14.01,2013-03-19 09:35:00,
2013-03-19 05:40:00,41.4,40.6,29.77,WNW,285,0.0,0.0,97,0.00,,---,0.01,VWS V14.01,2013-03-19 09:40:00,
2013-03-19 05:45:00,41.4,40.6,29.77,WNW,285,0.0,0.0,97,0.00,,---,0.01,VWS V14.01,2013-03-19 09:45:00,
2013-03-19 05:50:00,41.4,40.6,29.77,WNW,285,0.0,3.0,97,0.00,,---,0.01,VWS V14.01,2013-03-19 09:50:00,
2013-03-19 05:55:00,41.3,40.5,29.77,WNW,285,1.0,3.0,97,0.00,,---,0.01,VWS V14.01,2013-03-19 09:55:00,
2013-03-19 06:00:00,41.3,40.5,29.76,WNW,285,0.0,3.0,97,0.00,,---,0.01,VWS V14.01,2013-03-19 10:00:00,
2013-03-19 06:05:00,41.3,40.5,29.76,WNW,285,0.0,1.0,97,0.00,,---,0.01,VWS V14.01,2013-03-19 10:05:00,
2013-03-19 06:10:00,41.3,40.5,29.76,WNW,285,0.0,1.0,97,0.00,,---,0.01,VWS V14.01,2013-03-19 10:10:00,
2013-03-19 06:15:00,41.4,40.6,29.77,WNW,285,0.0,2.0,97,0.00,,---,0.01,VWS V14.01,2013-03-19 10:15:00,
2013-03-19 06:20:00,41.4,40.6,29.76,WNW,285,0.0,2.0,97,0.00,,---,0.01,VWS V14.01,2013-03-19 10:20:00,
2013-03-19 06:25:00,41.4,40.6,29.77,WNW,285,0.0,2.0,97,0.00,,---,0.01,VWS V14.01,2013-03-19 10:25:00,
2013-03-19 06:30:00,41.4,40.6,29.77,WNW,285,0.0,2.0,97,0.00,,---,0.01,VWS V14.01,2013-03-19 10:30:00,
2013-03-19 06:35:00,41.4,40.6,29.77,WNW,285,0.0,0.0,97,0.00,,---,0.01,VWS V14.01,2013-03-19 10:35:00,
2013-03-19 06:40:00,41.4,40.6,29.77,WNW,285,0.0,0.0,97,0.00,,---,0.01,VWS V14.01,2013-03-19 10:40:00,
2013-03-19 06:45:00,41.4,40.6,29.76,WNW,285,0.0,0.0,97,0.00,,---,0.01,VWS V14.01,2013-03-19 10:45:00,
2013-03-19 06:50:00,41.5,40.7,29.76,WNW,285,0.0,0.0,97,0.00,,---,0.01,VWS V14.01,2013-03-19 10:50:00,
2013-03-19 06:55:00,41.5,40.7,29.76,WNW,285,0.0,0.0,97,0.00,,---,0.01,VWS V14.01,2013-03-19 10:55:00,
2013-03-19 07:00:00,41.5,40.7,29.76,WNW,285,0.0,0.0,97,0.00,,---,0.01,VWS V14.01,2013-03-19 11:00:00,
2013-03-19 07:05:00,41.5,40.7,29.76,WNW,285,0.0,0.0,97,0.00,,---,0.01,VWS V14.01,2013-03-19 11:05:00,
2013-03-19 07:10:00,41.5,40.7,29.75,WNW,285,0.0,0.0,97,0.00,,---,0.01,VWS V14.01,2013-03-19 11:10:00,
2013-03-19 07:15:00,41.6,40.8,29.75,WNW,285,0.0,0.0,97,0.00,,---,0.01,VWS V14.01,2013-03-19 11:15:00,
2013-03-19 07:20:00,41.6,40.8,29.75,WNW,285,0.0,0.0,97,0.00,,---,0.01,VWS V14.01,2013-03-19 11:20:00,
2013-03-19 07:25:00,41.6,40.8,29.76,WNW,285,0.0,0.0,97,0.00,,---,0.01,VWS V14.01,2013-03-19 11:25:00,
2013-03-19 07:30:00,41.7,40.9,29.75,WNW,285,0.0,0.0,97,0.00,,---,0.01,VWS V14.01,2013-03-19 11:30:00,
2013-03-19 07:35:00,41.7,40.9,29.76,WNW,285,0.0,0.0,97,0.00,,---,0.01,VWS V14.01,2013-03-19 11:35:00,
2013-03-19 07:40:00,41.8,41.0,29.76,WNW,285,0.0,0.0,97,0.00,,---,0.01,VWS V14.01,2013-03-19 11:40:00,
2013-03-19 07:45:00,41.8,41.0,29.76,WNW,285,0.0,1.0,97,0.00,,---,0.01,VWS V14.01,2013-03-19 11:45:00,
2013-03-19 07:50:00,41.9,41.1,29.77,WNW,285,1.0,1.0,97,0.00,,---,0.01,VWS V14.01,2013-03-19 11:50:00,
2013-03-19 07:55:00,42.0,41.2,29.77,WNW,285,0.0,2.0,97,0.00,,---,0.01,VWS V14.01,2013-03-19 11:55:00,
2013-03-19 08:00:00,42.0,41.2,29.78,WNW,285,0.0,2.0,97,0.00,,---,0.01,VWS V14.01,2013-03-19 12:00:00,
2013-03-19 08:05:00,42.1,41.3,29.78,WNW,285,0.0,1.0,97,0.00,,---,0.01,VWS V14.01,2013-03-19 12:05:00,
2013-03-19 08:10:00,42.2,41.4,29.78,WNW,285,0.0,3.0,97,0.00,,---,0.01,VWS V14.01,2013-03-19 12:10:00,
2013-03-19 08:15:00,42.2,41.4,29.79,WNW,285,0.0,3.0,97,0.00,,---,0.01,VWS V14.01,2013-03-19 12:15:00,
2013-03-19 08:20:00,42.3,41.5,29.79,WNW,285,0.0,3.0,97,0.00,,---,0.01,VWS V14.01,2013-03-19 12:20:00,
2013-03-19 08:25:00,42.4,41.6,29.79,WNW,285,0.0,3.0,97,0.00,,---,0.01,VWS V14.01,2013-03-19 12:25:00,
2013-03-19 08:30:00,42.5,41.7,29.80,WNW,286,0.0,3.0,97,0.00,,---,0.01,VWS V14.01,2013-03-19 12:30:00,
2013-03-19 08:35:00,42.7,41.9,29.80,WNW,299,1.0,4.0,97,0.00,,---,0.01,VWS V14.01,2013-03-19 12:35:00,
2013-03-19 08:40:00,42.9,42.1,29.80,WNW,294,2.0,4.0,97,0.00,,---,0.01,VWS V14.01,2013-03-19 12:40:00,
2013-03-19 08:45:00,43.1,42.3,29.80,WNW,288,2.0,4.0,97,0.00,,---,0.01,VWS V14.01,2013-03-19 12:45:00,
2013-03-19 08:50:00,43.3,42.8,29.81,SW,234,3.0,4.0,98,0.00,,---,0.01,VWS V14.01,2013-03-19 12:50:00,
2013-03-19 08:55:00,43.5,43.0,29.81,WSW,248,0.0,4.0,98,0.00,,---,0.01,VWS V14.01,2013-03-19 12:55:00,
2013-03-19 09:00:00,43.7,43.2,29.81,West,280,2.0,4.0,98,0.00,,---,0.01,VWS V14.01,2013-03-19 13:00:00,
2013-03-19 09:05:00,43.8,43.0,29.81,WSW,251,2.0,4.0,97,0.00,,---,0.01,VWS V14.01,2013-03-19 13:05:00,
2013-03-19 09:10:00,44.0,43.5,29.82,WSW,251,0.0,4.0,98,0.00,,---,0.01,VWS V14.01,2013-03-19 13:10:00,
2013-03-19 09:15:00,44.1,43.6,29.82,WSW,257,0.0,4.0,98,0.00,,---,0.01,VWS V14.01,2013-03-19 13:15:00,
2013-03-19 09:20:00,44.3,43.8,29.82,NW,306,0.0,4.0,98,0.00,,---,0.01,VWS V14.01,2013-03-19 13:20:00,
2013-03-19 09:25:00,44.4,43.9,29.82,West,279,2.0,4.0,98,0.00,,---,0.01,VWS V14.01,2013-03-19 13:25:00,
2013-03-19 09:30:00,44.6,44.1,29.82,WSW,256,0.0,5.0,98,0.00,,---,0.01,VWS V14.01,2013-03-19 13:30:00,
2013-03-19 09:35:00,44.8,44.3,29.82,SW,221,2.0,4.0,98,0.00,,---,0.01,VWS V14.01,2013-03-19 13:35:00,
2013-03-19 09:40:00,45.0,44.2,29.82,West,277,0.0,5.0,97,0.00,,---,0.01,VWS V14.01,2013-03-19 13:40:00,
2013-03-19 09:45:00,45.1,44.6,29.82,West,279,0.0,5.0,98,0.00,,---,0.01,VWS V14.01,2013-03-19 13:45:00,
2013-03-19 09:50:00,45.3,44.5,29.82,SSW,195,0.0,5.0,97,0.00,,---,0.01,VWS V14.01,2013-03-19 13:50:00,
2013-03-19 09:55:00,45.4,44.6,29.83,WNW,291,1.0,6.0,97,0.00,,---,0.01,VWS V14.01,2013-03-19 13:55:00,
2013-03-19 10:00:00,45.6,44.8,29.83,WSW,252,4.0,9.0,97,0.00,,---,0.01,VWS V14.01,2013-03-19 14:00:00,
2013-03-19 10:05:00,45.9,45.1,29.83,WNW,292,1.0,6.0,97,0.00,,---,0.01,VWS V14.01,2013-03-19 14:05:00,
2013-03-19 10:10:00,46.3,45.5,29.83,NW,304,3.0,6.0,97,0.00,,---,0.01,VWS V14.01,2013-03-19 14:10:00,
2013-03-19 10:15:00,46.8,45.7,29.83,WNW,300,4.0,6.0,96,0.00,,---,0.01,VWS V14.01,2013-03-19 14:15:00,
2013-03-19 10:20:00,47.2,46.1,29.83,WSW,243,1.0,6.0,96,0.00,,---,0.01,VWS V14.01,2013-03-19 14:20:00,
2013-03-19 10:25:00,47.5,46.1,29.84,WSW,244,0.0,6.0,95,0.00,,---,0.01,VWS V14.01,2013-03-19 14:25:00,
2013-03-19 10:30:00,47.8,46.2,29.84,WSW,253,2.0,6.0,94,0.00,,---,0.01,VWS V14.01,2013-03-19 14:30:00,
2013-03-19 10:35:00,48.2,46.3,29.83,SW,228,1.0,7.0,93,0.00,,---,0.01,VWS V14.01,2013-03-19 14:35:00,
2013-03-19 10:40:00,48.6,46.4,29.84,NNW,348,2.0,7.0,92,0.00,,---,0.01,VWS V14.01,2013-03-19 14:40:00,
2013-03-19 10:45:00,49.1,46.6,29.84,WSW,254,6.0,7.0,91,0.00,,---,0.01,VWS V14.01,2013-03-19 14:45:00,
2013-03-19 10:50:00,49.7,46.9,29.84,SW,214,1.0,10.0,90,0.00,,---,0.01,VWS V14.01,2013-03-19 14:50:00,
2013-03-19 10:55:00,50.4,47.3,29.83,NW,320,4.0,10.0,89,0.00,,---,0.01,VWS V14.01,2013-03-19 14:55:00,
2013-03-19 11:00:00,51.0,47.3,29.84,WNW,296,4.0,10.0,87,0.00,,---,0.01,VWS V14.01,2013-03-19 15:00:00,
2013-03-19 11:05:00,51.6,47.2,29.84,NW,311,0.0,5.0,85,0.00,,---,0.01,VWS V14.01,2013-03-19 15:05:00,
2013-03-19 11:10:00,52.1,47.1,29.84,NW,310,4.0,11.0,83,0.00,,---,0.01,VWS V14.01,2013-03-19 15:10:00,
2013-03-19 11:15:00,52.5,47.8,29.84,West,259,1.0,11.0,84,0.00,,---,0.01,VWS V14.01,2013-03-19 15:15:00,
2013-03-19 11:20:00,53.0,48.0,29.85,North,360,6.0,11.0,83,0.00,,---,0.01,VWS V14.01,2013-03-19 15:20:00,
2013-03-19 11:25:00,53.4,47.4,29.83,NNE,32,1.0,11.0,80,0.00,,---,0.01,VWS V14.01,2013-03-19 15:25:00,
2013-03-19 11:30:00,53.8,47.1,29.83,NW,306,0.0,11.0,78,0.00,,---,0.01,VWS V14.01,2013-03-19 15:30:00,
2013-03-19 11:35:00,54.3,47.6,29.83,North,355,2.0,6.0,78,0.00,,---,0.01,VWS V14.01,2013-03-19 15:35:00,
2013-03-19 11:40:00,54.9,47.1,29.83,WNW,284,0.0,6.0,75,0.00,,---,0.01,VWS V14.01,2013-03-19 15:40:00,
2013-03-19 11:45:00,55.4,47.6,29.83,NNW,343,2.0,6.0,75,0.00,,---,0.01,VWS V14.01,2013-03-19 15:45:00,
2013-03-19 11:50:00,55.9,47.4,29.83,South,186,2.0,6.0,73,0.00,,---,0.01,VWS V14.01,2013-03-19 15:50:00,
2013-03-19 11:55:00,56.4,47.1,29.83,NW,324,2.0,6.0,71,0.00,,---,0.01,VWS V14.01,2013-03-19 15:55:00,
2013-03-19 12:00:00,57.0,48.1,29.83,West,267,2.0,6.0,72,0.00,,---,0.01,VWS V14.01,2013-03-19 16:00:00,
2013-03-19 12:05:00,57.5,45.4,29.82,SW,230,3.0,8.0,64,0.00,,---,0.01,VWS V14.01,2013-03-19 16:05:00,
2013-03-19 12:10:00,57.9,43.7,29.82,West,263,3.0,12.0,59,0.00,,---,0.01,VWS V14.01,2013-03-19 16:10:00,
2013-03-19 12:15:00,58.2,43.5,29.82,NW,317,3.0,12.0,58,0.00,,---,0.01,VWS V14.01,2013-03-19 16:15:00,
2013-03-19 12:20:00,58.5,43.8,29.82,WNW,284,3.0,12.0,58,0.00,,---,0.01,VWS V14.01,2013-03-19 16:20:00,
2013-03-19 12:25:00,58.7,41.6,29.82,West,273,2.0,12.0,53,0.00,,---,0.01,VWS V14.01,2013-03-19 16:25:00,
2013-03-19 12:30:00,58.9,42.3,29.81,NE,35,3.0,12.0,54,0.00,,---,0.01,VWS V14.01,2013-03-19 16:30:00,
2013-03-19 12:35:00,59.4,41.8,29.81,West,274,5.0,15.0,52,0.00,,---,0.01,VWS V14.01,2013-03-19 16:35:00,
2013-03-19 12:40:00,59.8,41.1,29.81,NNW,337,1.0,15.0,50,0.00,,---,0.01,VWS V14.01,2013-03-19 16:40:00,
2013-03-19 12:45:00,60.0,41.3,29.81,SW,234,2.0,15.0,50,0.00,,---,0.01,VWS V14.01,2013-03-19 16:45:00,
2013-03-19 12:50:00,60.3,40.0,29.82,WSW,247,2.0,15.0,47,0.00,,---,0.01,VWS V14.01,2013-03-19 16:50:00,
2013-03-19 12:55:00,60.4,39.5,29.81,West,273,4.0,15.0,46,0.00,,---,0.01,VWS V14.01,2013-03-19 16:55:00,
2013-03-19 13:00:00,60.7,39.3,29.81,North,355,3.0,15.0,45,0.00,,---,0.01,VWS V14.01,2013-03-19 17:00:00,
2013-03-19 13:05:00,60.8,39.3,29.81,WNW,285,7.0,11.0,45,0.00,,---,0.01,VWS V14.01,2013-03-19 17:05:00,
2013-03-19 13:10:00,60.9,40.0,29.81,West,265,2.0,11.0,46,0.00,,---,0.01,VWS V14.01,2013-03-19 17:10:00,
2013-03-19 13:15:00,61.2,41.4,29.81,West,264,3.0,11.0,48,0.00,,---,0.01,VWS V14.01,2013-03-19 17:15:00,
2013-03-19 13:20:00,61.5,39.4,29.81,West,281,5.0,13.0,44,0.00,,---,0.01,VWS V14.01,2013-03-19 17:20:00,
2013-03-19 13:25:00,61.4,38.7,29.81,WNW,296,3.0,13.0,43,0.00,,---,0.01,VWS V14.01,2013-03-19 17:25:00,
2013-03-19 13:30:00,61.6,40.1,29.81,NW,312,2.0,13.0,45,0.00,,---,0.01,VWS V14.01,2013-03-19 17:30:00,
2013-03-19 13:35:00,61.9,40.9,29.81,NNW,329,0.0,12.0,46,0.00,,---,0.01,VWS V14.01,2013-03-19 17:35:00,
2013-03-19 13:40:00,62.3,38.9,29.81,NNW,329,3.0,12.0,42,0.00,,---,0.01,VWS V14.01,2013-03-19 17:40:00,
2013-03-19 13:45:00,62.5,38.5,29.80,SSW,194,7.0,12.0,41,0.00,,---,0.01,VWS V14.01,2013-03-19 17:45:00,
2013-03-19 13:50:00,62.5,39.1,29.80,SSW,208,2.0,12.0,42,0.00,,---,0.01,VWS V14.01,2013-03-19 17:50:00,
2013-03-19 13:55:00,62.6,39.8,29.80,WSW,255,2.0,12.0,43,0.00,,---,0.01,VWS V14.01,2013-03-19 17:55:00,
2013-03-19 14:00:00,62.8,40.0,29.80,SSW,194,5.0,12.0,43,0.00,,---,0.01,VWS V14.01,2013-03-19 18:00:00,
2013-03-19 14:05:00,63.0,39.6,29.80,NW,324,3.0,10.0,42,0.00,,---,0.01,VWS V14.01,2013-03-19 18:05:00,
2013-03-19 14:10:00,63.4,39.9,29.80,WNW,287,5.0,11.0,42,0.00,,---,0.01,VWS V14.01,2013-03-19 18:10:00,
2013-03-19 14:15:00,63.6,38.2,29.80,NW,317,5.0,11.0,39,0.00,,---,0.01,VWS V14.01,2013-03-19 18:15:00,
2013-03-19 14:20:00,63.7,39.0,29.80,NNW,331,6.0,11.0,40,0.00,,---,0.01,VWS V14.01,2013-03-19 18:20:00,
2013-03-19 14:25:00,63.9,39.1,29.80,SSW,200,3.0,11.0,40,0.00,,---,0.01,VWS V14.01,2013-03-19 18:25:00,
2013-03-19 14:30:00,64.2,38.1,29.80,NNW,340,5.0,14.0,38,0.00,,---,0.01,VWS V14.01,2013-03-19 18:30:00,
2013-03-19 14:35:00,64.3,37.5,29.79,North,5,2.0,12.0,37,0.00,,---,0.01,VWS V14.01,2013-03-19 18:35:00,
2013-03-19 14:40:00,64.4,39.6,29.79,NW,308,4.0,12.0,40,0.00,,---,0.01,VWS V14.01,2013-03-19 18:40:00,
2013-03-19 14:45:00,64.8,38.6,29.79,NW,323,12.0,12.0,38,0.00,,---,0.01,VWS V14.01,2013-03-19 18:45:00,
2013-03-19 14:50:00,64.9,38.7,29.79,WNW,302,3.0,12.0,38,0.00,,---,0.01,VWS V14.01,2013-03-19 18:50:00,
2013-03-19 14:55:00,65.2,39.6,29.79,West,274,5.0,12.0,39,0.00,,---,0.01,VWS V14.01,2013-03-19 18:55:00,
2013-03-19 15:00:00,65.5,39.9,29.79,WNW,296,7.0,12.0,39,0.00,,---,0.01,VWS V14.01,2013-03-19 19:00:00,
2013-03-19 15:05:00,65.7,40.7,29.79,West,260,4.0,9.0,40,0.00,,---,0.01,VWS V14.01,2013-03-19 19:05:00,
2013-03-19 15:10:00,65.6,39.3,29.78,SSW,212,5.0,12.0,38,0.00,,---,0.01,VWS V14.01,2013-03-19 19:10:00,
2013-03-19 15:15:00,65.5,38.6,29.78,WSW,242,11.0,12.0,37,0.00,,---,0.01,VWS V14.01,2013-03-19 19:15:00,
2013-03-19 15:20:00,65.6,38.0,29.78,WSW,246,5.0,12.0,36,0.00,,---,0.01,VWS V14.01,2013-03-19 19:20:00,
2013-03-19 15:25:00,65.7,38.7,29.78,WSW,251,4.0,12.0,37,0.00,,---,0.01,VWS V14.01,2013-03-19 19:25:00,
2013-03-19 15:30:00,66.0,39.0,29.78,NNW,329,3.0,12.0,37,0.00,,---,0.01,VWS V14.01,2013-03-19 19:30:00,
2013-03-19 15:35:00,66.3,37.8,29.78,North,360,2.0,9.0,35,0.00,,---,0.01,VWS V14.01,2013-03-19 19:35:00,
2013-03-19 15:40:00,66.5,37.3,29.78,NNW,341,2.0,11.0,34,0.00,,---,0.01,VWS V14.01,2013-03-19 19:40:00,
2013-03-19 15:45:00,66.6,35.8,29.78,SW,236,11.0,11.0,32,0.00,,---,0.01,VWS V14.01,2013-03-19 19:45:00,
2013-03-19 15:50:00,66.5,35.0,29.78,WNW,295,6.0,13.0,31,0.00,,---,0.01,VWS V14.01,2013-03-19 19:50:00,
2013-03-19 15:55:00,66.5,35.8,29.78,West,261,6.0,13.0,32,0.00,,---,0.01,VWS V14.01,2013-03-19 19:55:00,
2013-03-19 16:00:00,66.7,35.1,29.79,SSW,197,4.0,13.0,31,0.00,,---,0.01,VWS V14.01,2013-03-19 20:00:00,
2013-03-19 16:05:00,66.8,34.4,29.79,SSW,211,7.0,11.0,30,0.00,,---,0.01,VWS V14.01,2013-03-19 20:05:00,
2013-03-19 16:10:00,66.7,32.6,29.79,NW,304,3.0,11.0,28,0.00,,---,0.01,VWS V14.01,2013-03-19 20:10:00,
2013-03-19 16:15:00,66.9,33.6,29.79,WSW,248,3.0,11.0,29,0.00,,---,0.01,VWS V14.01,2013-03-19 20:15:00,
2013-03-19 16:20:00,67.1,32.9,29.79,WNW,302,4.0,11.0,28,0.00,,---,0.01,VWS V14.01,2013-03-19 20:20:00,
2013-03-19 16:25:00,67.3,33.1,29.79,North,9,1.0,11.0,28,0.00,,---,0.01,VWS V14.01,2013-03-19 20:25:00,
2013-03-19 16:30:00,67.5,35.0,29.79,WSW,244,3.0,11.0,30,0.00,,---,0.01,VWS V14.01,2013-03-19 20:30:00,
2013-03-19 16:35:00,67.7,33.5,29.79,NNW,336,3.0,8.0,28,0.00,,---,0.01,VWS V14.01,2013-03-19 20:35:00,
2013-03-19 16:40:00,67.7,32.5,29.80,NNW,346,2.0,12.0,27,0.00,,---,0.01,VWS V14.01,2013-03-19 20:40:00,
2013-03-19 16:45:00,67.7,32.5,29.80,NW,317,4.0,12.0,27,0.00,,---,0.01,VWS V14.01,2013-03-19 20:45:00,
2013-03-19 16:50:00,67.6,32.5,29.80,NW,317,6.0,12.0,27,0.00,,---,0.01,VWS V14.01,2013-03-19 20:50:00,
2013-03-19 16:55:00,67.4,32.3,29.80,West,265,10.0,13.0,27,0.00,,---,0.01,VWS V14.01,2013-03-19 20:55:00,
2013-03-19 17:00:00,67.1,31.1,29.80,West,270,3.0,13.0,26,0.00,,---,0.01,VWS V14.01,2013-03-19 21:00:00,
2013-03-19 17:05:00,67.0,31.0,29.80,West,273,4.0,13.0,26,0.00,,---,0.01,VWS V14.01,2013-03-19 21:05:00,
2013-03-19 17:10:00,67.0,31.0,29.80,NW,304,1.0,13.0,26,0.00,,---,0.01,VWS V14.01,2013-03-19 21:10:00,
2013-03-19 17:15:00,66.9,30.9,29.80,WNW,284,4.0,13.0,26,0.00,,---,0.01,VWS V14.01,2013-03-19 21:15:00,
2013-03-19 17:20:00,66.8,29.9,29.80,West,271,5.0,13.0,25,0.00,,---,0.01,VWS V14.01,2013-03-19 21:20:00,
2013-03-19 17:25:00,66.8,30.8,29.80,West,269,2.0,13.0,26,0.00,,---,0.01,VWS V14.01,2013-03-19 21:25:00,
2013-03-19 17:30:00,66.9,31.9,29.80,West,274,3.0,13.0,27,0.00,,---,0.01,VWS V14.01,2013-03-19 21:30:00,
2013-03-19 17:35:00,67.1,30.1,29.80,SW,234,1.0,10.0,25,0.00,,---,0.01,VWS V14.01,2013-03-19 21:35:00,
2013-03-19 17:40:00,67.1,30.1,29.80,NNE,22,2.0,10.0,25,0.00,,---,0.01,VWS V14.01,2013-03-19 21:40:00,
2013-03-19 17:45:00,67.0,28.0,29.80,NNW,348,3.0,10.0,23,0.00,,---,0.01,VWS V14.01,2013-03-19 21:45:00,
2013-03-19 17:50:00,66.8,26.8,29.80,WNW,300,5.0,15.0,22,0.00,,---,0.01,VWS V14.01,2013-03-19 21:50:00,
2013-03-19 17:55:00,66.6,27.7,29.80,WNW,292,4.0,15.0,23,0.00,,---,0.01,VWS V14.01,2013-03-19 21:55:00,
2013-03-19 18:00:00,66.5,27.6,29.81,NNE,14,4.0,15.0,23,0.00,,---,0.01,VWS V14.01,2013-03-19 22:00:00,
2013-03-19 18:05:00,66.5,28.6,29.81,WNW,290,1.0,6.0,24,0.00,,---,0.01,VWS V14.01,2013-03-19 22:05:00,
2013-03-19 18:10:00,66.5,29.6,29.81,North,350,4.0,6.0,25,0.00,,---,0.01,VWS V14.01,2013-03-19 22:10:00,
2013-03-19 18:15:00,66.5,29.6,29.81,WNW,284,1.0,9.0,25,0.00,,---,0.01,VWS V14.01,2013-03-19 22:15:00,
2013-03-19 18:20:00,66.3,28.5,29.81,North,360,1.0,9.0,24,0.00,,---,0.01,VWS V14.01,2013-03-19 22:20:00,
2013-03-19 18:25:00,66.2,29.4,29.81,West,281,3.0,9.0,25,0.00,,---,0.01,VWS V14.01,2013-03-19 22:25:00,
2013-03-19 18:30:00,66.1,30.2,29.82,SSE,148,0.0,9.0,26,0.00,,---,0.01,VWS V14.01,2013-03-19 22:30:00,
2013-03-19 18:35:00,66.0,32.0,29.82,West,280,5.0,10.0,28,0.00,,---,0.01,VWS V14.01,2013-03-19 22:35:00,
2013-03-19 18:40:00,65.5,28.8,29.83,North,355,14.0,14.0,25,0.00,,---,0.01,VWS V14.01,2013-03-19 22:40:00,
2013-03-19 18:45:00,64.9,27.3,29.83,WNW,302,9.0,14.0,24,0.00,,---,0.01,VWS V14.01,2013-03-19 22:45:00,
2013-03-19 18:50:00,64.3,26.8,29.83,West,266,5.0,17.0,24,0.00,,---,0.01,VWS V14.01,2013-03-19 22:50:00,
2013-03-19 18:55:00,63.7,27.2,29.84,WNW,286,2.0,17.0,25,0.00,,---,0.01,VWS V14.01,2013-03-19 22:55:00,
2013-03-19 19:00:00,63.1,25.8,29.84,NW,313,0.0,17.0,24,0.00,,---,0.01,VWS V14.01,2013-03-19 23:00:00,
2013-03-19 19:05:00,62.7,26.4,29.84,West,265,7.0,11.0,25,0.00,,---,0.01,VWS V14.01,2013-03-19 23:05:00,
2013-03-19 19:10:00,62.3,26.1,29.84,SW,220,2.0,11.0,25,0.00,,---,0.01,VWS V14.01,2013-03-19 23:10:00,
2013-03-19 19:15:00,62.0,24.8,29.85,NW,304,6.0,12.0,24,0.00,,---,0.01,VWS V14.01,2013-03-19 23:15:00,
2013-03-19 19:20:00,61.7,25.5,29.85,WNW,290,5.0,12.0,25,0.00,,---,0.01,VWS V14.01,2013-03-19 23:20:00,
2013-03-19 19:25:00,61.4,25.3,29.85,SSW,207,3.0,12.0,25,0.00,,---,0.01,VWS V14.01,2013-03-19 23:25:00,
2013-03-19 19:30:00,61.1,25.0,29.85,SSW,213,2.0,12.0,25,0.00,,---,0.01,VWS V14.01,2013-03-19 23:30:00,
2013-03-19 19:35:00,60.9,24.9,29.85,WSW,252,3.0,7.0,25,0.00,,---,0.01,VWS V14.01,2013-03-19 23:35:00,
2013-03-19 19:40:00,60.7,24.7,29.85,NW,306,3.0,9.0,25,0.00,,---,0.01,VWS V14.01,2013-03-19 23:40:00,
2013-03-19 19:45:00,60.4,25.4,29.85,SW,228,3.0,9.0,26,0.00,,---,0.01,VWS V14.01,2013-03-19 23:45:00,
2013-03-19 19:50:00,60.2,26.1,29.85,North,355,2.0,9.0,27,0.00,,---,0.01,VWS V14.01,2013-03-19 23:50:00,
2013-03-19 19:55:00,59.8,24.9,29.85,West,275,1.0,9.0,26,0.00,,---,0.01,VWS V14.01,2013-03-19 23:55:00,
2013-03-19 20:00:00,59.6,25.6,29.85,SSW,198,0.0,9.0,27,0.00,,---,0.01,VWS V14.01,2013-03-20 00:00:00,
2013-03-19 20:05:00,59.3,24.4,29.85,WNW,286,0.0,14.0,26,0.00,,---,0.01,VWS V14.01,2013-03-20 00:05:00,
2013-03-19 20:10:00,59.2,24.4,29.85,NW,322,2.0,14.0,26,0.00,,---,0.01,VWS V14.01,2013-03-20 00:10:00,
2013-03-19 20:15:00,59.1,25.2,29.86,NW,315,0.0,14.0,27,0.00,,---,0.01,VWS V14.01,2013-03-20 00:15:00,
2013-03-19 20:20:00,59.0,24.2,29.86,West,273,1.0,14.0,26,0.00,,---,0.01,VWS V14.01,2013-03-20 00:20:00,
2013-03-19 20:25:00,58.9,25.9,29.87,NW,309,3.0,14.0,28,0.00,,---,0.01,VWS V14.01,2013-03-20 00:25:00,
2013-03-19 20:30:00,58.7,25.7,29.87,WSW,246,1.0,14.0,28,0.00,,---,0.01,VWS V14.01,2013-03-20 00:30:00,
2013-03-19 20:35:00,58.6,25.6,29.87,NW,312,0.0,4.0,28,0.00,,---,0.01,VWS V14.01,2013-03-20 00:35:00,
2013-03-19 20:40:00,58.4,24.6,29.88,WNW,292,0.0,5.0,27,0.00,,---,0.01,VWS V14.01,2013-03-20 00:40:00,
2013-03-19 20:45:00,58.2,25.3,29.88,West,273,0.0,5.0,28,0.00,,---,0.01,VWS V14.01,2013-03-20 00:45:00,
2013-03-19 20:50:00,58.1,26.0,29.88,WNW,283,0.0,5.0,29,0.00,,---,0.01,VWS V14.01,2013-03-20 00:50:00,
2013-03-19 20:55:00,57.8,24.9,29.89,West,276,2.0,5.0,28,0.00,,---,0.01,VWS V14.01,2013-03-20 00:55:00,
2013-03-19 21:00:00,57.6,25.6,29.89,WNW,295,2.0,5.0,29,0.00,,---,0.01,VWS V14.01,2013-03-20 01:00:00,
2013-03-19 21:05:00,57.4,25.4,29.89,WSW,248,3.0,3.0,29,0.00,,---,0.01,VWS V14.01,2013-03-20 01:05:00,
2013-03-19 21:10:00,57.3,25.3,29.90,SSW,194,0.0,3.0,29,0.00,,---,0.01,VWS V14.01,2013-03-20 01:10:00,
2013-03-19 21:15:00,57.1,26.0,29.90,West,269,2.0,5.0,30,0.00,,---,0.01,VWS V14.01,2013-03-20 01:15:00,
2013-03-19 21:20:00,57.0,25.9,29.91,West,267,1.0,10.0,30,0.00,,---,0.01,VWS V14.01,2013-03-20 01:20:00,
2013-03-19 21:25:00,57.0,25.1,29.91,NNE,25,4.0,10.0,29,0.00,,---,0.01,VWS V14.01,2013-03-20 01:25:00,
2013-03-19 21:30:00,57.0,25.1,29.91,West,270,3.0,10.0,29,0.00,,---,0.01,VWS V14.01,2013-03-20 01:30:00,
2013-03-19 21:35:00,57.0,25.1,29.91,WNW,285,0.0,6.0,29,0.00,,---,0.01,VWS V14.01,2013-03-20 01:35:00,
2013-03-19 21:40:00,56.8,26.5,29.91,SW,235,0.0,6.0,31,0.00,,---,0.01,VWS V14.01,2013-03-20 01:40:00,
2013-03-19 21:45:00,56.8,24.9,29.92,WNW,289,1.0,10.0,29,0.00,,---,0.01,VWS V14.01,2013-03-20 01:45:00,
2013-03-19 21:50:00,56.7,25.6,29.92,NW,312,0.0,10.0,30,0.00,,---,0.01,VWS V14.01,2013-03-20 01:50:00,
2013-03-19 21:55:00,56.6,25.5,29.92,West,275,2.0,10.0,30,0.00,,---,0.01,VWS V14.01,2013-03-20 01:55:00,
2013-03-19 22:00:00,56.4,25.4,29.92,WNW,294,0.0,10.0,30,0.00,,---,0.01,VWS V14.01,2013-03-20 02:00:00,
2013-03-19 22:05:00,56.2,25.2,29.92,North,355,1.0,5.0,30,0.00,,---,0.01,VWS V14.01,2013-03-20 02:05:00,
2013-03-19 22:10:00,56.1,25.9,29.92,NNE,26,1.0,8.0,31,0.00,,---,0.01,VWS V14.01,2013-03-20 02:10:00,
2013-03-19 22:15:00,55.9,25.7,29.92,North,5,0.0,11.0,31,0.00,,---,0.01,VWS V14.01,2013-03-20 02:15:00,
2013-03-19 22:20:00,55.7,24.8,29.93,WNW,285,4.0,11.0,30,0.00,,---,0.01,VWS V14.01,2013-03-20 02:20:00,
2013-03-19 22:25:00,55.5,24.6,29.93,WNW,290,1.0,11.0,30,0.00,,---,0.01,VWS V14.01,2013-03-20 02:25:00,
2013-03-19 22:30:00,55.3,24.4,29.93,WNW,294,3.0,11.0,30,0.00,,---,0.01,VWS V14.01,2013-03-20 02:30:00,
2013-03-19 22:35:00,55.2,23.5,29.93,NW,320,1.0,3.0,29,0.00,,---,0.01,VWS V14.01,2013-03-20 02:35:00,
2013-03-19 22:40:00,55.0,23.4,29.93,WNW,284,3.0,10.0,29,0.00,,---,0.01,VWS V14.01,2013-03-20 02:40:00,
2013-03-19 22:45:00,54.8,22.3,29.93,North,5,0.0,10.0,28,0.00,,---,0.01,VWS V14.01,2013-03-20 02:45:00,
2013-03-19 22:50:00,54.6,23.0,29.93,North,350,2.0,10.0,29,0.00,,---,0.01,VWS V14.01,2013-03-20 02:50:00,
2013-03-19 22:55:00,54.4,22.8,29.94,NNW,340,0.0,10.0,29,0.00,,---,0.01,VWS V14.01,2013-03-20 02:55:00,
2013-03-19 23:00:00,54.2,22.6,29.94,NNW,340,0.0,10.0,29,0.00,,---,0.01,VWS V14.01,2013-03-20 03:00:00,
2013-03-19 23:05:00,53.9,23.2,29.94,NNW,338,0.0,2.0,30,0.00,,---,0.01,VWS V14.01,2013-03-20 03:05:00,
2013-03-19 23:10:00,53.7,23.8,29.94,North,5,0.0,2.0,31,0.00,,---,0.01,VWS V14.01,2013-03-20 03:10:00,
2013-03-19 23:15:00,53.3,21.9,29.94,SE,134,0.0,2.0,29,0.00,,---,0.01,VWS V14.01,2013-03-20 03:15:00,
2013-03-19 23:20:00,53.0,20.8,29.94,NE,41,0.0,5.0,28,0.00,,---,0.01,VWS V14.01,2013-03-20 03:20:00,
2013-03-19 23:25:00,52.8,20.6,29.95,North,355,0.0,5.0,28,0.00,,---,0.01,VWS V14.01,2013-03-20 03:25:00,
2013-03-19 23:30:00,52.6,19.6,29.95,North,349,0.0,5.0,27,0.00,,---,0.01,VWS V14.01,2013-03-20 03:30:00,
2013-03-19 23:35:00,52.4,19.4,29.95,NW,308,0.0,4.0,27,0.00,,---,0.01,VWS V14.01,2013-03-20 03:35:00,
2013-03-19 23:40:00,52.2,19.2,29.95,North,350,1.0,4.0,27,0.00,,---,0.01,VWS V14.01,2013-03-20 03:40:00,
2013-03-19 23:45:00,52.1,19.2,29.94,NNE,32,0.0,4.0,27,0.00,,---,0.01,VWS V14.01,2013-03-20 03:45:00,
2013-03-19 23:50:00,51.8,18.0,29.94,NNE,27,0.0,4.0,26,0.00,,---,0.01,VWS V14.01,2013-03-20 03:50:00,
2013-03-19 23:55:00,51.6,18.7,29.94,WNW,292,0.0,4.0,27,0.00,,---,0.01,VWS V14.01,2013-03-20 03:55:00,